Location: York
(31.8935°S, 116.7682°E)
Time: 17:15:25
(UTC+08:00)

Oscar 11 - Pass Details

Date: 08 December 2022
Orbit: 611 x 621 km, 97.6° (Epoch: 27 January)

Event Time Altitude Azimuth Distance (km) Brightness Sun altitude
Rises 03:06:56 0° 51° (NE) 2,881 10.6 -20.1°
Reaches altitude 10° 03:09:47 10° 72° (ENE) 1,988 10.0 -19.7°
Maximum altitude 03:12:30 17° 111° (ESE) 1,606 10.0 -19.3°
Drops below altitude 10° 03:15:16 10° 150° (SSE) 2,009 10.8 -18.9°
Sets 03:18:08 0° 170° (S) 2,927 11.4 -18.4°
